| time (UTC) | temp C | wind direction | speed KPH | gust KPH | rain 1hr cm | rain 24hr cm | rain mn cm | humidity % | barometer mb |
| 20260503031002 | 19 | 40 | 0.0 | 0.0 | 0.00 | 0.00 | 0.00 | 40 | 1013.2 |
| 20260503030458 | 19 | 40 | 0.0 | 0.0 | 0.00 | 0.00 | 0.00 | 39 | 1013.4 |
| 20260503025955 | 19 | 17 | 0.0 | 0.0 | 0.00 | 0.00 | 0.00 | 39 | 1013.2 |
| 20260503025452 | 19 | 17 | 0.0 | 0.0 | 0.00 | 0.00 | 0.00 | 38 | 1013.2 |
| 20260503024949 | 20 | 17 | 0.0 | 0.0 | 0.00 | 0.00 | 0.00 | 37 | 1013.1 |
| 20260503024445 | 20 | 16 | 0.0 | 0.0 | 0.00 | 0.00 | 0.00 | 36 | 1013.2 |
| 20260503023943 | 21 | 15 | 0.0 | 0.0 | 0.00 | 0.00 | 0.00 | 35 | 1013.5 |
| 20260503023440 | 21 | 15 | 0.0 | 0.0 | 0.00 | 0.00 | 0.00 | 34 | 1013.5 |
| 20260503022937 | 21 | 9 | 0.0 | 0.0 | 0.00 | 0.00 | 0.00 | 33 | 1013.4 |
| 20260503022432 | 21 | 4 | 0.0 | 1.6 | 0.00 | 0.00 | 0.00 | 32 | 1013.4 |
| 20260503021928 | 22 | 357 | 0.0 | 1.6 | 0.00 | 0.00 | 0.00 | 33 | 1013.2 |
| 20260503021424 | 22 | 16 | 0.0 | 0.0 | 0.00 | 0.00 | 0.00 | 31 | 1013.2 |
| 20260503020922 | 22 | 25 | 0.0 | 0.0 | 0.00 | 0.00 | 0.00 | 32 | 1013.4 |
| 20260503020419 | 22 | 45 | 0.0 | 0.0 | 0.00 | 0.00 | 0.00 | 31 | 1013.4 |
| 20260503015915 | 22 | 31 | 0.0 | 0.0 | 0.00 | 0.00 | 0.00 | 30 | 1013.4 |
| 20260503015413 | 22 | 24 | 0.0 | 0.0 | 0.00 | 0.00 | 0.00 | 31 | 1013.5 |
| 20260503014908 | 23 | 45 | 0.0 | 0.0 | 0.00 | 0.00 | 0.00 | 29 | 1013.5 |
| 20260503014406 | 23 | 39 | 0.0 | 0.0 | 0.00 | 0.00 | 0.00 | 29 | 1013.2 |
| 20260503013904 | 23 | 53 | 0.0 | 0.0 | 0.00 | 0.00 | 0.00 | 29 | 1013.2 |
| 20260503013400 | 23 | 46 | 0.0 | 0.0 | 0.00 | 0.00 | 0.00 | 28 | 1013.5 |
| 20260503012857 | 23 | 18 | 0.0 | 3.2 | 0.00 | 0.00 | 0.00 | 28 | 1013.5 |
| 20260503012355 | 23 | 11 | 1.6 | 4.8 | 0.00 | 0.00 | 0.00 | 27 | 1013.4 |
| 20260503011852 | 24 | 26 | 0.0 | 0.0 | 0.00 | 0.00 | 0.00 | 25 | 1013.4 |
| 20260503011349 | 25 | 26 | 0.0 | 0.0 | 0.00 | 0.00 | 0.00 | 22 | 1013.4 |
| 20260503010845 | 25 | 24 | 0.0 | 0.0 | 0.00 | 0.00 | 0.00 | 22 | 1013.4 |
| 20260503010342 | 25 | 57 | 0.0 | 0.0 | 0.00 | 0.00 | 0.00 | 20 | 1013.4 |
| 20260503005839 | 25 | 34 | 0.0 | 0.0 | 0.00 | 0.00 | 0.00 | 20 | 1013.4 |
| 20260503005337 | 25 | 337 | 1.6 | 4.8 | 0.00 | 0.00 | 0.00 | 20 | 1013.5 |
| 20260503004833 | 25 | 40 | 0.0 | 1.6 | 0.00 | 0.00 | 0.00 | 20 | 1013.4 |
| 20260503004330 | 26 | 56 | 0.0 | 0.0 | 0.00 | 0.00 | 0.00 | 19 | 1013.6 |
| 20260503003828 | 26 | 28 | 0.0 | 0.0 | 0.00 | 0.00 | 0.00 | 20 | 1013.5 |
| 20260503003325 | 26 | 348 | 0.0 | 0.0 | 0.00 | 0.00 | 0.00 | 16 | 1013.7 |
| 20260503002821 | 26 | 36 | 0.0 | 0.0 | 0.00 | 0.00 | 0.00 | 18 | 1013.5 |
| 20260503002318 | 26 | 29 | 0.0 | 1.6 | 0.00 | 0.00 | 0.00 | 17 | 1013.7 |
| 20260503001815 | 26 | 313 | 0.0 | 3.2 | 0.00 | 0.00 | 0.00 | 19 | 1013.7 |
| 20260503001311 | 26 | 32 | 0.0 | 0.0 | 0.00 | 0.00 | 0.00 | 21 | 1013.6 |
| 20260503000809 | 26 | 24 | 0.0 | 1.6 | 0.00 | 0.00 | 0.00 | 16 | 1013.6 |
| 20260503000306 | 25 | 30 | 0.0 | 0.0 | 0.00 | 0.00 | 0.00 | 17 | 1013.9 |
| 20260502235803 | 26 | 353 | 0.0 | 3.2 | 0.00 | 0.00 | 0.00 | 18 | 1013.7 |
| 20260502235301 | 26 | 65 | 0.0 | 3.2 | 0.00 | 0.00 | 0.00 | 18 | 1013.9 |
| 20260502234757 | 26 | 59 | 0.0 | 0.0 | 0.00 | 0.00 | 0.00 | 18 | 1013.8 |
| 20260502234254 | 26 | 31 | 0.0 | 1.6 | 0.00 | 0.00 | 0.00 | 17 | 1013.8 |
| 20260502233750 | 27 | 0 | 0.0 | 3.2 | 0.00 | 0.00 | 0.00 | 19 | 1013.7 |
| 20260502233247 | 28 | 314 | 0.0 | 3.2 | 0.00 | 0.00 | 0.00 | 17 | 1013.7 |
| 20260502232743 | 28 | 16 | 0.0 | 0.0 | 0.00 | 0.00 | 0.00 | 16 | 1013.8 |
| 20260502232240 | 28 | 240 | 0.0 | 1.6 | 0.00 | 0.00 | 0.00 | 18 | 1014.0 |
| 20260502231736 | 27 | 108 | 0.0 | 1.6 | 0.00 | 0.00 | 0.00 | 15 | 1013.9 |
| 20260502231234 | 26 | 238 | 0.0 | 1.6 | 0.00 | 0.00 | 0.00 | 20 | 1014.0 |
| 20260502230733 | 26 | 7 | 0.0 | 0.0 | 0.00 | 0.00 | 0.00 | 18 | 1014.2 |
| 20260502230231 | 26 | 87 | 1.6 | 3.2 | 0.00 | 0.00 | 0.00 | 15 | 1014.1 |
| 20260502225727 | 27 | 68 | 0.0 | 1.6 | 0.00 | 0.00 | 0.00 | 17 | 1014.1 |
| 20260502225224 | 27 | 161 | 0.0 | 1.6 | 0.00 | 0.00 | 0.00 | 16 | 1014.2 |
| 20260502224720 | 26 | 66 | 0.0 | 1.6 | 0.00 | 0.00 | 0.00 | 20 | 1014.3 |
| 20260502224217 | 26 | 83 | 0.0 | 1.6 | 0.00 | 0.00 | 0.00 | 19 | 1014.3 |
| 20260502223714 | 26 | 90 | 0.0 | 0.0 | 0.00 | 0.00 | 0.00 | 23 | 1014.2 |
| 20260502223212 | 26 | 155 | 0.0 | 0.0 | 0.00 | 0.00 | 0.00 | 17 | 1014.7 |
| 20260502222710 | 27 | 36 | 0.0 | 3.2 | 0.00 | 0.00 | 0.00 | 20 | 1014.3 |
| 20260502222206 | 27 | 68 | 0.0 | 1.6 | 0.00 | 0.00 | 0.00 | 18 | 1014.6 |
| 20260502221702 | 26 | 163 | 0.0 | 3.2 | 0.00 | 0.00 | 0.00 | 17 | 1014.7 |
| 20260502221159 | 27 | 57 | 0.0 | 1.6 | 0.00 | 0.00 | 0.00 | 20 | 1014.6 |
| 20260502220655 | 27 | 121 | 0.0 | 0.0 | 0.00 | 0.00 | 0.00 | 19 | 1014.8 |
| 20260502220152 | 27 | 46 | 0.0 | 3.2 | 0.00 | 0.00 | 0.00 | 23 | 1014.8 |
| 20260502215649 | 27 | 46 | 0.0 | 8.0 | 0.00 | 0.00 | 0.00 | 20 | 1015.1 |
| 20260502215145 | 27 | 129 | 0.0 | 0.0 | 0.00 | 0.00 | 0.00 | 22 | 1015.1 |
| 20260502214643 | 27 | 256 | 0.0 | 3.2 | 0.00 | 0.00 | 0.00 | 18 | 1015.2 |
| 20260502214140 | 27 | 248 | 0.0 | 0.0 | 0.00 | 0.00 | 0.00 | 23 | 1015.1 |
| 20260502213637 | 27 | 86 | 0.0 | 4.8 | 0.00 | 0.00 | 0.00 | 22 | 1015.3 |
| 20260502213134 | 27 | 115 | 0.0 | 8.0 | 0.00 | 0.00 | 0.00 | 23 | 1015.2 |
| 20260502212633 | 27 | 37 | 1.6 | 9.7 | 0.00 | 0.00 | 0.00 | 21 | 1015.3 |
| 20260502212131 | 27 | 267 | 0.0 | 1.6 | 0.00 | 0.00 | 0.00 | 19 | 1015.4 |
| 20260502211626 | 26 | 220 | 4.8 | 9.7 | 0.00 | 0.00 | 0.00 | 18 | 1015.4 |
| 20260502211124 | 26 | 89 | 0.0 | 8.0 | 0.00 | 0.00 | 0.00 | 19 | 1015.5 |
| 20260502210621 | 26 | 40 | 1.6 | 8.0 | 0.00 | 0.00 | 0.00 | 20 | 1015.4 |
| 20260502210118 | 26 | 0 | 0.0 | 4.8 | 0.00 | 0.00 | 0.00 | 20 | 1015.5 |
| 20260502205614 | 26 | 327 | 0.0 | 0.0 | 0.00 | 0.00 | 0.00 | 21 | 1015.6 |
| 20260502205111 | 26 | 201 | 4.8 | 9.7 | 0.00 | 0.00 | 0.00 | 18 | 1015.7 |
| 20260502204608 | 26 | 181 | 1.6 | 8.0 | 0.00 | 0.00 | 0.00 | 20 | 1015.5 |
| 20260502204106 | 27 | 187 | 1.6 | 4.8 | 0.00 | 0.00 | 0.00 | 19 | 1015.9 |
| 20260502203603 | 27 | 49 | 0.0 | 4.8 | 0.00 | 0.00 | 0.00 | 22 | 1015.9 |
| 20260502203100 | 27 | 179 | 0.0 | 8.0 | 0.00 | 0.00 | 0.00 | 20 | 1015.9 |
| 20260502202555 | 26 | 49 | 3.2 | 8.0 | 0.00 | 0.00 | 0.00 | 22 | 1015.7 |
| 20260502202054 | 26 | 73 | 0.0 | 0.0 | 0.00 | 0.00 | 0.00 | 23 | 1016.1 |
| 20260502201550 | 26 | 81 | 0.0 | 1.6 | 0.00 | 0.00 | 0.00 | 20 | 1016.1 |
| 20260502201046 | 26 | 77 | 0.0 | 8.0 | 0.00 | 0.00 | 0.00 | 22 | 1016.1 |
| 20260502200542 | 26 | 214 | 3.2 | 8.0 | 0.00 | 0.00 | 0.00 | 21 | 1016.1 |
| 20260502200041 | 26 | 59 | 0.0 | 3.2 | 0.00 | 0.00 | 0.00 | 24 | 1016.1 |
| 20260502195538 | 25 | 55 | 0.0 | 1.6 | 0.00 | 0.00 | 0.00 | 28 | 1016.3 |
| 20260502195033 | 25 | 161 | 1.6 | 8.0 | 0.00 | 0.00 | 0.00 | 25 | 1016.4 |
| 20260502194530 | 25 | 198 | 4.8 | 4.8 | 0.00 | 0.00 | 0.00 | 25 | 1016.5 |
| 20260502194026 | 25 | 33 | 0.0 | 3.2 | 0.00 | 0.00 | 0.00 | 27 | 1016.5 |
| 20260502193524 | 24 | 140 | 0.0 | 0.0 | 0.00 | 0.00 | 0.00 | 30 | 1016.6 |
| 20260502193020 | 23 | 124 | 0.0 | 4.8 | 0.00 | 0.00 | 0.00 | 30 | 1016.7 |
| 20260502192516 | 24 | 160 | 3.2 | 4.8 | 0.00 | 0.00 | 0.00 | 33 | 1016.7 |
| 20260502192014 | 24 | 74 | 0.0 | 4.8 | 0.00 | 0.00 | 0.00 | 28 | 1016.8 |
| 20260502191511 | 24 | 218 | 0.0 | 1.6 | 0.00 | 0.00 | 0.00 | 31 | 1016.9 |
| 20260502191009 | 23 | 188 | 4.8 | 4.8 | 0.00 | 0.00 | 0.00 | 30 | 1016.9 |
| 20260502190506 | 23 | 169 | 0.0 | 1.6 | 0.00 | 0.00 | 0.00 | 32 | 1017.0 |
| 20260502190002 | 23 | 39 | 0.0 | 1.6 | 0.00 | 0.00 | 0.00 | 32 | 1017.0 |
| 20260502185457 | 23 | 50 | 0.0 | 0.0 | 0.00 | 0.00 | 0.00 | 30 | 1017.4 |
| 20260502184954 | 22 | 64 | 0.0 | 0.0 | 0.00 | 0.00 | 0.00 | 32 | 1017.4 |
| 20260502184450 | 22 | 216 | 0.0 | 0.0 | 0.00 | 0.00 | 0.00 | 33 | 1017.4 |
| 20260502183947 | 22 | 206 | 0.0 | 0.0 | 0.00 | 0.00 | 0.00 | 30 | 1017.6 |
| 20260502183443 | 22 | 134 | 0.0 | 1.6 | 0.00 | 0.00 | 0.00 | 36 | 1017.6 |
| 20260502182938 | 21 | 256 | 0.0 | 0.0 | 0.00 | 0.00 | 0.00 | 33 | 1017.7 |
| 20260502182434 | 21 | 262 | 3.2 | 3.2 | 0.00 | 0.00 | 0.00 | 35 | 1017.7 |
| 20260502181930 | 21 | 11 | 0.0 | 4.8 | 0.00 | 0.00 | 0.00 | 43 | 1017.7 |
| 20260502181429 | 20 | 286 | 0.0 | 3.2 | 0.00 | 0.00 | 0.00 | 37 | 1017.9 |
| 20260502180927 | 20 | 275 | 0.0 | 0.0 | 0.00 | 0.00 | 0.00 | 42 | 1017.9 |
| 20260502180424 | 20 | 4 | 0.0 | 1.6 | 0.00 | 0.00 | 0.00 | 41 | 1018.0 |
| 20260502170342 | 18 | 355 | 0.0 | 0.0 | 0.00 | 0.00 | 0.00 | 41 | 1018.3 |
| 20260502164330 | 17 | 322 | 1.6 | 3.2 | 0.00 | 0.00 | 0.00 | 47 | 1018.5 |
| 20260502163826 | 17 | 16 | 0.0 | 0.0 | 0.00 | 0.00 | 0.00 | 46 | 1018.5 |
| 20260502163322 | 16 | 35 | 0.0 | 0.0 | 0.00 | 0.00 | 0.00 | 45 | 1018.5 |
| 20260502162820 | 16 | 338 | 0.0 | 1.6 | 0.00 | 0.00 | 0.00 | 44 | 1018.2 |
| 20260502162316 | 16 | 347 | 0.0 | 0.0 | 0.00 | 0.00 | 0.00 | 46 | 1018.6 |
| 20260502161813 | 15 | 153 | 0.0 | 1.6 | 0.00 | 0.00 | 0.00 | 47 | 1018.3 |
| 20260502161309 | 15 | 301 | 0.0 | 3.2 | 0.00 | 0.00 | 0.00 | 47 | 1018.7 |
| 20260502160807 | 15 | 46 | 0.0 | 4.8 | 0.00 | 0.00 | 0.00 | 51 | 1018.6 |
| 20260502160306 | 14 | 211 | 1.6 | 8.0 | 0.00 | 0.00 | 0.00 | 51 | 1018.7 |
| 20260502152235 | 13 | 13 | 0.0 | 1.6 | 0.00 | 0.00 | 0.00 | 52 | 1018.5 |
| 20260502151733 | 12 | 53 | 0.0 | 0.0 | 0.00 | 0.00 | 0.00 | 54 | 1018.3 |
| 20260502151230 | 12 | 40 | 0.0 | 0.0 | 0.00 | 0.00 | 0.00 | 58 | 1018.1 |
| 20260502150727 | 11 | 42 | 0.0 | 0.0 | 0.00 | 0.00 | 0.00 | 60 | 1018.1 |
| 20260502150224 | 11 | 44 | 0.0 | 0.0 | 0.00 | 0.00 | 0.00 | 62 | 1018.2 |
| 20260502130612 | 7 | 52 | 0.0 | 0.0 | 0.00 | 0.00 | 0.00 | 67 | 1017.3 |
| 20260502130110 | 7 | 55 | 0.0 | 0.0 | 0.00 | 0.00 | 0.00 | 68 | 1017.4 |
| 20260502123555 | 8 | 58 | 0.0 | 0.0 | 0.00 | 0.00 | 0.00 | 64 | 1017.0 |
| 20260502123052 | 8 | 52 | 0.0 | 0.0 | 0.00 | 0.00 | 0.00 | 63 | 1017.5 |
| 20260502122548 | 8 | 51 | 0.0 | 0.0 | 0.00 | 0.00 | 0.00 | 61 | 1017.4 |
| 20260502122046 | 8 | 54 | 0.0 | 0.0 | 0.00 | 0.00 | 0.00 | 59 | 1017.2 |
| 20260502121543 | 8 | 63 | 0.0 | 0.0 | 0.00 | 0.00 | 0.00 | 59 | 1017.4 |
| 20260502121041 | 8 | 62 | 0.0 | 0.0 | 0.00 | 0.00 | 0.00 | 61 | 1017.4 |
| 20260502120537 | 8 | 62 | 0.0 | 0.0 | 0.00 | 0.00 | 0.00 | 60 | 1017.4 |
| 20260502115532 | 8 | 58 | 0.0 | 0.0 | 0.00 | 0.00 | 0.00 | 59 | 1017.2 |
| 20260502115027 | 8 | 57 | 0.0 | 0.0 | 0.00 | 0.00 | 0.00 | 60 | 1017.4 |
| 20260502114524 | 8 | 60 | 0.0 | 0.0 | 0.00 | 0.00 | 0.00 | 62 | 1017.6 |
| 20260502114021 | 8 | 64 | 0.0 | 0.0 | 0.00 | 0.00 | 0.00 | 62 | 1017.4 |
| 20260502113518 | 8 | 59 | 0.0 | 0.0 | 0.00 | 0.00 | 0.00 | 62 | 1017.5 |
| 20260502113017 | 8 | 59 | 0.0 | 0.0 | 0.00 | 0.00 | 0.00 | 61 | 1017.6 |
| 20260502112515 | 8 | 67 | 0.0 | 0.0 | 0.00 | 0.00 | 0.00 | 59 | 1017.4 |
| 20260502112012 | 8 | 60 | 0.0 | 0.0 | 0.00 | 0.00 | 0.00 | 60 | 1017.5 |
| 20260502111509 | 8 | 61 | 0.0 | 0.0 | 0.00 | 0.00 | 0.00 | 58 | 1017.5 |
| 20260502111006 | 8 | 60 | 0.0 | 0.0 | 0.00 | 0.00 | 0.00 | 57 | 1017.6 |
| 20260502110504 | 8 | 58 | 0.0 | 0.0 | 0.00 | 0.00 | 0.00 | 59 | 1017.7 |
| 20260502110001 | 9 | 60 | 0.0 | 0.0 | 0.00 | 0.00 | 0.00 | 57 | 1017.9 |
| 20260502105459 | 9 | 60 | 0.0 | 0.0 | 0.00 | 0.00 | 0.00 | 56 | 1017.7 |
| 20260502104956 | 9 | 57 | 0.0 | 0.0 | 0.00 | 0.00 | 0.00 | 57 | 1017.6 |
| 20260502104453 | 9 | 61 | 0.0 | 0.0 | 0.00 | 0.00 | 0.00 | 57 | 1017.7 |
| 20260502103950 | 9 | 52 | 0.0 | 0.0 | 0.00 | 0.00 | 0.00 | 57 | 1017.7 |
| 20260502103448 | 10 | 61 | 0.0 | 0.0 | 0.00 | 0.00 | 0.00 | 56 | 1017.6 |
| 20260502102944 | 10 | 51 | 0.0 | 0.0 | 0.00 | 0.00 | 0.00 | 56 | 1017.5 |
| 20260502102442 | 8 | 59 | 0.0 | 0.0 | 0.00 | 0.00 | 0.00 | 59 | 1017.7 |
| 20260502101938 | 8 | 59 | 0.0 | 0.0 | 0.00 | 0.00 | 0.00 | 59 | 1017.6 |
| 20260502101437 | 8 | 54 | 0.0 | 0.0 | 0.00 | 0.00 | 0.00 | 59 | 1017.8 |
| 20260502100934 | 8 | 56 | 0.0 | 0.0 | 0.00 | 0.00 | 0.00 | 59 | 1017.6 |
| 20260502100434 | 8 | 63 | 0.0 | 0.0 | 0.00 | 0.00 | 0.00 | 59 | 1017.6 |
| 20260502091408 | 8 | 62 | 0.0 | 0.0 | 0.00 | 0.00 | 0.00 | 61 | 1017.6 |
| 20260502090905 | 8 | 59 | 0.0 | 0.0 | 0.00 | 0.00 | 0.00 | 63 | 1017.7 |
| 20260502090402 | 8 | 59 | 0.0 | 0.0 | 0.00 | 0.00 | 0.00 | 61 | 1017.8 |
| 20260502071256 | 11 | 58 | 0.0 | 0.0 | 0.00 | 0.00 | 0.00 | 51 | 1018.0 |
| 20260502070755 | 11 | 57 | 0.0 | 0.0 | 0.00 | 0.00 | 0.00 | 52 | 1018.1 |
| 20260502070252 | 11 | 57 | 0.0 | 0.0 | 0.00 | 0.00 | 0.00 | 51 | 1018.0 |
| 20260502065751 | 11 | 57 | 0.0 | 0.0 | 0.00 | 0.00 | 0.00 | 52 | 1018.0 |
| 20260502065248 | 11 | 56 | 0.0 | 0.0 | 0.00 | 0.00 | 0.00 | 52 | 1018.1 |
| 20260502064746 | 11 | 56 | 0.0 | 0.0 | 0.00 | 0.00 | 0.00 | 52 | 1018.3 |
| 20260502064244 | 11 | 56 | 0.0 | 0.0 | 0.00 | 0.00 | 0.00 | 52 | 1018.3 |
| 20260502063741 | 11 | 56 | 0.0 | 0.0 | 0.00 | 0.00 | 0.00 | 52 | 1018.2 |
| 20260502063239 | 11 | 55 | 0.0 | 0.0 | 0.00 | 0.00 | 0.00 | 51 | 1018.0 |
| 20260502062736 | 11 | 55 | 0.0 | 0.0 | 0.00 | 0.00 | 0.00 | 51 | 1018.0 |
| 20260502062233 | 11 | 54 | 0.0 | 0.0 | 0.00 | 0.00 | 0.00 | 51 | 1018.2 |
| 20260502061732 | 11 | 54 | 0.0 | 0.0 | 0.00 | 0.00 | 0.00 | 51 | 1017.9 |
| 20260502061229 | 11 | 60 | 0.0 | 0.0 | 0.00 | 0.00 | 0.00 | 51 | 1018.2 |
| 20260502060724 | 11 | 60 | 0.0 | 0.0 | 0.00 | 0.00 | 0.00 | 51 | 1018.1 |
| 20260502060220 | 11 | 60 | 0.0 | 0.0 | 0.00 | 0.00 | 0.00 | 51 | 1018.1 |
| 20260502055718 | 11 | 60 | 0.0 | 0.0 | 0.00 | 0.00 | 0.00 | 51 | 1018.1 |
| 20260502055216 | 11 | 61 | 0.0 | 0.0 | 0.00 | 0.00 | 0.00 | 51 | 1018.1 |
| 20260502054715 | 11 | 62 | 0.0 | 0.0 | 0.00 | 0.00 | 0.00 | 52 | 1018.1 |
| 20260502054212 | 11 | 61 | 0.0 | 0.0 | 0.00 | 0.00 | 0.00 | 52 | 1018.2 |
| 20260502053710 | 11 | 62 | 0.0 | 0.0 | 0.00 | 0.00 | 0.00 | 52 | 1018.2 |
| 20260502053206 | 11 | 63 | 0.0 | 0.0 | 0.00 | 0.00 | 0.00 | 54 | 1018.2 |
| 20260502052704 | 11 | 65 | 0.0 | 0.0 | 0.00 | 0.00 | 0.00 | 52 | 1018.3 |
| 20260502052203 | 11 | 69 | 0.0 | 0.0 | 0.00 | 0.00 | 0.00 | 51 | 1018.2 |
| 20260502051700 | 11 | 74 | 0.0 | 0.0 | 0.00 | 0.00 | 0.00 | 51 | 1018.3 |
| 20260502051158 | 11 | 55 | 0.0 | 0.0 | 0.00 | 0.00 | 0.00 | 51 | 1018.1 |
| 20260502050654 | 11 | 55 | 0.0 | 0.0 | 0.00 | 0.00 | 0.00 | 51 | 1018.2 |
| 20260502050151 | 11 | 55 | 0.0 | 0.0 | 0.00 | 0.00 | 0.00 | 51 | 1018.1 |
| 20260502045647 | 11 | 54 | 0.0 | 0.0 | 0.00 | 0.00 | 0.00 | 52 | 1018.5 |
| 20260502045145 | 12 | 54 | 0.0 | 0.0 | 0.00 | 0.00 | 0.00 | 52 | 1018.1 |
| 20260502044642 | 12 | 53 | 0.0 | 0.0 | 0.00 | 0.00 | 0.00 | 51 | 1018.1 |
| 20260502044138 | 12 | 49 | 0.0 | 0.0 | 0.00 | 0.00 | 0.00 | 51 | 1018.2 |
| 20260502043636 | 12 | 49 | 0.0 | 0.0 | 0.00 | 0.00 | 0.00 | 51 | 1018.2 |
| 20260502043133 | 12 | 49 | 0.0 | 0.0 | 0.00 | 0.00 | 0.00 | 50 | 1018.3 |
| 20260502042632 | 12 | 49 | 0.0 | 0.0 | 0.00 | 0.00 | 0.00 | 49 | 1018.3 |
| 20260502042129 | 13 | 49 | 0.0 | 0.0 | 0.00 | 0.00 | 0.00 | 48 | 1018.3 |
| 20260502041627 | 13 | 49 | 0.0 | 0.0 | 0.00 | 0.00 | 0.00 | 47 | 1018.5 |
| 20260502041124 | 13 | 49 | 0.0 | 0.0 | 0.00 | 0.00 | 0.00 | 47 | 1018.3 |
| 20260502040621 | 12 | 49 | 0.0 | 0.0 | 0.00 | 0.00 | 0.00 | 49 | 1018.2 |
| 20260502040118 | 12 | 49 | 0.0 | 0.0 | 0.00 | 0.00 | 0.00 | 47 | 1018.2 |
| 20260502035614 | 13 | 49 | 0.0 | 0.0 | 0.00 | 0.00 | 0.00 | 47 | 1018.0 |
| 20260502035111 | 13 | 49 | 0.0 | 0.0 | 0.00 | 0.00 | 0.00 | 49 | 1018.0 |
| 20260502034609 | 13 | 49 | 0.0 | 0.0 | 0.00 | 0.00 | 0.00 | 47 | 1018.0 |
| 20260502034107 | 13 | 49 | 0.0 | 0.0 | 0.00 | 0.00 | 0.00 | 46 | 1017.7 |
| 20260502033605 | 14 | 49 | 0.0 | 0.0 | 0.00 | 0.00 | 0.00 | 43 | 1018.0 |
| 20260502033102 | 15 | 49 | 0.0 | 0.0 | 0.00 | 0.00 | 0.00 | 41 | 1017.9 |
| 20260502032558 | 15 | 49 | 0.0 | 0.0 | 0.00 | 0.00 | 0.00 | 40 | 1017.8 |
| 20260502032055 | 16 | 49 | 0.0 | 0.0 | 0.00 | 0.00 | 0.00 | 39 | 1017.8 |
| 20260502031553 | 16 | 49 | 0.0 | 0.0 | 0.00 | 0.00 | 0.00 | 38 | 1017.6 |